Overview Statistics Trail Chart Weather Telemetry Raw packets
 

This is the latest recevied weather packets stored in our database for station/object KI5NXU. If no packets are shown the sender has not sent any weather packets the latest 10 day(s).

<< 85 86 87 88 89 90 91 >>
Time Temp. Humidity Pressure Rain* Wind** Luminosity Snow
1787757419 27.78° C 66% 1017.6 hPa 0 mm - 55 W/m² -
1787757115 27.78° C 66% 1017.4 hPa 0 mm - 54 W/m² -
1787756813 27.78° C 65% 1017.4 hPa 0 mm - 74 W/m² -
1787756510 27.78° C 66% 1017.3 hPa 0 mm - 70 W/m² -
1787756208 28.33° C 65% 1017 hPa 0 mm - 54 W/m² -
1787755904 27.78° C 64% 1017.1 hPa 0 mm - 48 W/m² -
1787755603 27.78° C 66% 1017 hPa 0 mm - 37 W/m² -
1787755302 27.78° C 66% 1017.1 hPa 0 mm - 29 W/m² -
1787755002 27.78° C 69% 1017.1 hPa 0 mm - 28 W/m² -
1787754701 27.78° C 68% 1016.9 hPa 0 mm - 23 W/m² -
1787754399 27.78° C 68% 1017 hPa 0 mm - 26 W/m² -
1787754094 27.78° C 67% 1017.1 hPa 0 mm - 35 W/m² -
1787753794 28.33° C 66% 1017 hPa 0 mm - 46 W/m² -
1787753493 27.78° C 65% 1016.8 hPa 0 mm - 55 W/m² -
1787753192 27.78° C 68% 1017.1 hPa 0 mm - 60 W/m² -
1787752888 27.78° C 69% 1016.7 hPa 0 mm - 64 W/m² -
1787752586 27.78° C 69% 1016.9 hPa 0 mm - 59 W/m² -
1787752283 27.78° C 68% 1016.7 hPa 0 mm - 42 W/m² -
1787751981 27.78° C 67% 1016.6 hPa 0 mm - 31 W/m² -
1787751676 27.78° C 66% 1016.6 hPa 0 mm - 24 W/m² -
1787751372 27.78° C 69% 1016.8 hPa 0 mm - 27 W/m² -
1787751067 28.33° C 67% 1016.4 hPa 0 mm - 28 W/m² -
1787750762 28.33° C 65% 1016.7 hPa 0 mm - 29 W/m² -
1787750455 28.33° C 65% 1016.8 hPa 0 mm - 29 W/m² -
1787750151 28.33° C 66% 1016.7 hPa 0 mm - 46 W/m² -

* Rain latest hour (hover to see other rain measurements)
** Current wind speed in m/s (hover to see current wind gust speed)